Home > Weather > Dakar > Past weeks

Flag for Senegal Past Weather in Dakar, Senegal — Yesterday and Last 2 Weeks

Now
70 °F

Passing clouds.


Feels Like: 70 °F
Forecast: 68 / 76 °F
Wind: 12 mph from North

Location: Dakar / Yoff

Current Time: May 27, 2016 at 8:28:03 AM

Latest Report: May 27, 2016 at 8:00 AM


Visibility: N/A

Pressure: 30.01 "Hg

Humidity: 88%

Dew Point: 66 °F

Location of DakarLocation

Past Weather in Dakar — Graph

°F

Dakar Temperature Yesterday

Maximum temperature yesterday: 77 °F (at 3:00 PM)
Minimum temperature yesterday: 68 °F (at 12:00 AM)
Average temperature yesterday: 71 °F

High & Low Weather Summary for the Past Weeks

 TemperatureHumidityPressure
High77 °F (May 12, 3:30 PM)100% (May 18, 5:30 PM)30.04 "Hg (May 18, 5:30 PM)
Low66 °F (May 14, 6:00 AM)65% (May 12, 3:30 PM)29.83 "Hg (May 19, 1:30 AM)
Average71 °F82%29.95 "Hg
* Reported May 12 7:00 AM — May 27 7:00 AM, Dakar, Weather by CustomWeather, © 2016

Note: Actual official high and low records may vary slightly from our data, if they occured in-between our weather recording intervals... More about our weather records

Advertising

Dakar Weather History for the Previous 24 Hours

Scroll right to see more
 ConditionsComfort  
Time TempWeatherWind HumidityBarometerVisibility
7:00 AM
Fri, May 27
70 °FPassing clouds.12 mph88%29.98 "HgN/A
6:30 AM70 °FPassing clouds.12 mph88%29.95 "HgN/A
6:00 AM68 °FPassing clouds.16 mph94%29.95 "HgN/A
5:30 AM68 °FPassing clouds.14 mph94%29.92 "HgN/A
5:00 AM70 °FPassing clouds.16 mph88%29.95 "HgN/A
4:30 AM70 °FPassing clouds.13 mph88%29.92 "HgN/A
4:00 AM70 °FPassing clouds.14 mph88%29.92 "HgN/A
3:30 AM68 °FPassing clouds.13 mph94%29.92 "HgN/A
3:00 AM70 °FPassing clouds.13 mph88%29.95 "HgN/A
2:30 AM70 °FPassing clouds.13 mph88%29.95 "HgN/A
2:00 AM70 °FPassing clouds.13 mph88%29.98 "HgN/A
1:30 AM70 °FPassing clouds.12 mph88%29.98 "HgN/A
1:00 AM70 °FPassing clouds.13 mph88%29.98 "HgN/A
12:30 AM70 °FClear.13 mph88%29.98 "Hg10 mi
12:00 AM70 °FClear.14 mph88%29.98 "Hg10 mi
11:30 PM
Thu, May 26
70 °FClear.13 mph88%29.98 "Hg10 mi
11:00 PM70 °FClear.13 mph88%29.95 "Hg10 mi
10:30 PM70 °FClear.14 mph88%29.95 "Hg10 mi
10:00 PM70 °FPassing clouds.13 mph88%29.95 "HgN/A
9:30 PM75 °FPassing clouds.13 mph74%29.95 "HgN/A
9:00 PM70 °FPassing clouds.13 mph88%29.92 "HgN/A
8:30 PM70 °FPassing clouds.13 mph83%29.92 "HgN/A
8:00 PM70 °FClear.12 mph83%29.92 "Hg10 mi
7:30 PM70 °FPassing clouds.15 mph83%29.89 "HgN/A
7:00 PM72 °FScattered clouds.14 mph78%29.92 "HgN/A
6:30 PM72 °FPassing clouds.15 mph78%29.89 "HgN/A
6:00 PM72 °FPassing clouds.16 mph78%29.89 "HgN/A
5:30 PM73 °FPassing clouds.15 mph74%29.89 "HgN/A
5:00 PM73 °FPassing clouds.14 mph74%29.89 "HgN/A
4:30 PM75 °FSunny.16 mph69%29.89 "Hg10 mi
4:00 PM73 °FSunny.17 mph74%29.89 "Hg10 mi
3:30 PM75 °FSunny.16 mph69%29.89 "Hg10 mi
3:00 PM77 °FPassing clouds.18 mph65%29.92 "HgN/A
2:30 PM75 °FPassing clouds.17 mph69%29.92 "HgN/A
2:00 PM75 °FPassing clouds.18 mph69%29.92 "HgN/A
1:30 PM75 °FPassing clouds.18 mph69%29.95 "HgN/A
1:00 PM75 °FPassing clouds.18 mph74%29.95 "HgN/A
12:30 PM75 °FPassing clouds.20 mph69%29.95 "HgN/A
12:00 PM75 °FPassing clouds.18 mph74%29.98 "HgN/A
11:30 AM75 °FPassing clouds.18 mph69%29.98 "HgN/A
11:00 AM73 °FPassing clouds.17 mph78%29.98 "HgN/A
10:30 AM73 °FScattered clouds.14 mph74%29.98 "HgN/A
10:00 AM73 °FScattered clouds.15 mph78%29.98 "HgN/A
9:30 AM72 °FScattered clouds.12 mph78%29.98 "HgN/A
9:00 AM70 °FScattered clouds.10 mph88%29.98 "HgN/A
8:30 AM70 °FScattered clouds.10 mph88%29.95 "HgN/A
8:00 AM70 °FScattered clouds.9 mph88%29.95 "HgN/A
Weather by CustomWeather, © 2016

See weather overviewHow to use our weather pages